• In Germany
  • List of Countries
  • For 7 days
  • Water Temperature
  • Satellite Maps
  • Weather Map
  • Weather Widgets
  • user-avatar
    Login

    Hourly Weather Shusha

    Today, 28 June, Wednesday

    Time Temperature Precipitation Wind Pressure Humidity
    00:00 +16°C° 0 mm 1 mps 659 mmHg 85%
    01:00 +16°C° 0 mm 1 mps 658 mmHg 86%
    02:00 +16°C° 0 mm 1 mps 658 mmHg 87%
    03:00 +15°C° 0 mm 1 mps 658 mmHg 88%
    04:00 +18°C° 0 mm 1 mps 659 mmHg 85%
    05:00 +19°C° 0 mm 1 mps 659 mmHg 81%
    06:00 +19°C° 0 mm 0 mps 660 mmHg 78%
    07:00 +23°C° 0 mm 1 mps 660 mmHg 70%
    08:00 +24°C° 0 mm 1 mps 660 mmHg 61%
    09:00 +27°C° 0 mm 2 mps 661 mmHg 51%
    10:00 +28°C° 0 mm 2 mps 661 mmHg 48%
    11:00 +29°C° 0 mm 3 mps 660 mmHg 45%
    12:00 +30°C° 0 mm 3 mps 660 mmHg 42%
    13:00 +30°C° 0.1 mm 3 mps 660 mmHg 42%
    14:00 +30°C° 0.1 mm 3 mps 660 mmHg 41%
    15:00 +31°C° 0.1 mm 3 mps 659 mmHg 41%
    16:00 +30°C° 0.1 mm 3 mps 659 mmHg 44%
    17:00 +29°C° 0.1 mm 3 mps 659 mmHg 47%
    18:00 +28°C° 0.1 mm 3 mps 658 mmHg 50%
    19:00 +25°C° 0.3 mm 2 mps 658 mmHg 57%
    20:00 +23°C° 0.3 mm 2 mps 658 mmHg 65%
    21:00 +20°C° 0.3 mm 1 mps 657 mmHg 72%
    22:00 +20°C° 0.1 mm 1 mps 657 mmHg 73%
    23:00 +19°C° 0.1 mm 1 mps 657 mmHg 74%

    Tomorrow, 29 June, Thursday

    Time Temperature Precipitation Wind Pressure Humidity
    00:00 +19°C° 0.1 mm 1 mps 657 mmHg 76%
    01:00 +18°C° 0 mm 1 mps 657 mmHg 76%
    02:00 +18°C° 0 mm 1 mps 657 mmHg 77%
    03:00 +16°C° 0 mm 1 mps 657 mmHg 78%
    04:00 +19°C° 0 mm 1 mps 658 mmHg 73%
    05:00 +20°C° 0 mm 1 mps 658 mmHg 69%
    06:00 +21°C° 0 mm 1 mps 659 mmHg 65%
    07:00 +23°C° 0 mm 1 mps 659 mmHg 57%
    08:00 +25°C° 0 mm 1 mps 659 mmHg 49%
    09:00 +26°C° 0 mm 2 mps 660 mmHg 41%
    10:00 +28°C° 0 mm 2 mps 660 mmHg 37%
    11:00 +29°C° 0 mm 2 mps 660 mmHg 34%
    12:00 +30°C° 0 mm 2 mps 660 mmHg 31%
    13:00 +30°C° 0.1 mm 2 mps 659 mmHg 30%
    14:00 +30°C° 0.1 mm 3 mps 659 mmHg 29%
    15:00 +31°C° 0.1 mm 3 mps 659 mmHg 28%
    16:00 +30°C° 0.2 mm 2 mps 659 mmHg 30%
    17:00 +29°C° 0.2 mm 2 mps 658 mmHg 32%
    18:00 +28°C° 0.2 mm 2 mps 658 mmHg 34%
    19:00 +25°C° 0 mm 2 mps 658 mmHg 40%
    20:00 +22°C° 0 mm 1 mps 657 mmHg 45%
    21:00 +19°C° 0 mm 1 mps 657 mmHg 50%
    22:00 +19°C° 0 mm 1 mps 657 mmHg 50%
    23:00 +19°C° 0 mm 1 mps 657 mmHg 49%

    Day after tomorrow, 30 June, Friday

    Time Temperature Precipitation Wind Pressure Humidity
    00:00 +18°C° 0 mm 2 mps 657 mmHg 48%
    01:00 +17°C° 0 mm 2 mps 657 mmHg 48%
    02:00 +17°C° 0 mm 2 mps 657 mmHg 48%
    03:00 +17°C° 0 mm 2 mps 657 mmHg 48%
    04:00 +18°C° 0 mm 2 mps 658 mmHg 47%
    05:00 +19°C° 0 mm 2 mps 658 mmHg 46%
    06:00 +20°C° 0 mm 2 mps 659 mmHg 45%
    07:00 +23°C° 0 mm 2 mps 659 mmHg 38%
    08:00 +25°C° 0 mm 2 mps 660 mmHg 30%
    09:00 +27°C° 0 mm 2 mps 660 mmHg 23%
    10:00 +28°C° 0 mm 2 mps 660 mmHg 22%
    11:00 +29°C° 0 mm 2 mps 660 mmHg 21%
    12:00 +30°C° 0 mm 3 mps 660 mmHg 20%
    13:00 +30°C° 0 mm 3 mps 660 mmHg 20%
    14:00 +30°C° 0 mm 3 mps 660 mmHg 20%
    15:00 +30°C° 0 mm 3 mps 660 mmHg 20%
    16:00 +30°C° 0 mm 3 mps 660 mmHg 23%
    17:00 +29°C° 0 mm 3 mps 660 mmHg 25%
    18:00 +28°C° 0 mm 2 mps 660 mmHg 28%
    19:00 +25°C° 0 mm 2 mps 659 mmHg 33%
    20:00 +21°C° 0 mm 2 mps 659 mmHg 37%
    21:00 +18°C° 0 mm 2 mps 659 mmHg 42%
    22:00 +18°C° 0 mm 2 mps 659 mmHg 41%
    23:00 +18°C° 0 mm 2 mps 659 mmHg 40%

    1 July, Saturday

    Time Temperature Precipitation Wind Pressure Humidity
    00:00 +17°C° 0 mm 2 mps 659 mmHg 39%
    01:00 +17°C° 0 mm 2 mps 659 mmHg 40%
    02:00 +17°C° 0 mm 2 mps 659 mmHg 40%
    03:00 +16°C° 0 mm 2 mps 659 mmHg 41%
    04:00 +17°C° 0 mm 2 mps 660 mmHg 39%
    05:00 +18°C° 0 mm 2 mps 660 mmHg 38%
    06:00 +18°C° 0 mm 2 mps 661 mmHg 37%
    07:00 +21°C° 0 mm 2 mps 661 mmHg 33%
    08:00 +24°C° 0 mm 2 mps 662 mmHg 28%
    09:00 +27°C° 0 mm 1 mps 663 mmHg 23%
    10:00 +28°C° 0 mm 2 mps 663 mmHg 22%
    11:00 +29°C° 0 mm 2 mps 663 mmHg 22%
    12:00 +30°C° 0 mm 3 mps 663 mmHg 21%
    13:00 +30°C° 0 mm 3 mps 662 mmHg 21%
    14:00 +30°C° 0 mm 3 mps 662 mmHg 21%
    15:00 +31°C° 0 mm 3 mps 662 mmHg 21%
    16:00 +30°C° 0 mm 3 mps 662 mmHg 24%
    17:00 +29°C° 0 mm 3 mps 662 mmHg 27%
    18:00 +28°C° 0 mm 3 mps 662 mmHg 30%
    19:00 +26°C° 0 mm 2 mps 661 mmHg 34%
    20:00 +23°C° 0 mm 2 mps 661 mmHg 38%
    21:00 +19°C° 0 mm 2 mps 660 mmHg 42%
    22:00 +18°C° 0 mm 2 mps 660 mmHg 42%
    23:00 +18°C° 0 mm 2 mps 660 mmHg 42%

    2 July, Sunday

    Time Temperature Precipitation Wind Pressure Humidity
    00:00 +18°C° 0 mm 2 mps 661 mmHg 42%
    01:00 +17°C° 0 mm 2 mps 660 mmHg 41%
    02:00 +17°C° 0 mm 2 mps 660 mmHg 40%
    03:00 +17°C° 0 mm 2 mps 660 mmHg 39%
    04:00 +18°C° 0 mm 2 mps 660 mmHg 39%
    05:00 +18°C° 0 mm 2 mps 661 mmHg 39%
    06:00 +19°C° 0 mm 2 mps 661 mmHg 40%
    07:00 +23°C° 0 mm 2 mps 661 mmHg 36%
    08:00 +26°C° 0 mm 1 mps 662 mmHg 32%
    09:00 +28°C° 0 mm 1 mps 662 mmHg 28%
    10:00 +29°C° 0 mm 2 mps 662 mmHg 26%
    11:00 +30°C° 0 mm 2 mps 662 mmHg 24%
    12:00 +31°C° 0 mm 3 mps 662 mmHg 23%
    13:00 +31°C° 0 mm 3 mps 661 mmHg 23%
    14:00 +33°C° 0 mm 3 mps 661 mmHg 22%
    15:00 +33°C° 0 mm 3 mps 661 mmHg 22%
    16:00 +31°C° 0 mm 3 mps 660 mmHg 25%
    17:00 +31°C° 0 mm 2 mps 660 mmHg 28%
    18:00 +30°C° 0 mm 2 mps 660 mmHg 31%
    19:00 +27°C° 0.1 mm 2 mps 660 mmHg 34%
    20:00 +24°C° 0.1 mm 2 mps 659 mmHg 38%
    21:00 +21°C° 0.1 mm 2 mps 659 mmHg 42%
    22:00 +20°C° 0 mm 2 mps 659 mmHg 42%
    23:00 +19°C° 0 mm 2 mps 659 mmHg 43%

    3 July, Monday

    Time Temperature Precipitation Wind Pressure Humidity
    00:00 +19°C° 0 mm 2 mps 658 mmHg 44%
    01:00 +19°C° 0 mm 2 mps 658 mmHg 45%
    02:00 +18°C° 0 mm 2 mps 658 mmHg 45%
    03:00 +18°C° 0 mm 2 mps 657 mmHg 46%
    04:00 +19°C° 0 mm 2 mps 658 mmHg 45%
    05:00 +20°C° 0 mm 2 mps 658 mmHg 44%
    06:00 +22°C° 0 mm 1 mps 658 mmHg 43%
    07:00 +24°C° 0 mm 2 mps 659 mmHg 38%
    08:00 +27°C° 0 mm 2 mps 659 mmHg 32%
    09:00 +29°C° 0 mm 2 mps 660 mmHg 27%
    10:00 +30°C° 0 mm 2 mps 660 mmHg 25%
    11:00 +31°C° 0 mm 2 mps 659 mmHg 24%
    12:00 +34°C° 0 mm 2 mps 659 mmHg 22%
    13:00 +34°C° 0 mm 2 mps 659 mmHg 22%
    14:00 +34°C° 0 mm 2 mps 658 mmHg 22%
    15:00 +35°C° 0 mm 2 mps 658 mmHg 22%
    16:00 +34°C° 0.1 mm 2 mps 658 mmHg 25%
    17:00 +32°C° 0.1 mm 2 mps 658 mmHg 27%
    18:00 +31°C° 0.1 mm 1 mps 657 mmHg 30%
    19:00 +28°C° 0.1 mm 1 mps 657 mmHg 36%
    20:00 +25°C° 0.1 mm 1 mps 657 mmHg 41%
    21:00 +22°C° 0.1 mm 1 mps 656 mmHg 47%
    22:00 +21°C° 0.1 mm 2 mps 656 mmHg 46%
    23:00 +21°C° 0.1 mm 2 mps 656 mmHg 46%
    Show more